SL-16 DEB

Satellite information

Favourite Embed

Satellite Type and Status

DEBRISIN ORBIT

Key statistics

Satellite SL-16 DEB at a glance.

Uptime

11882

Days in orbit

Revolutions

≈ 14.4

Per day

Orbit

LEO

Low Earth Orbit

Inclination

71.1

Latest

Satellite identification and parameters

Extended collection of information and parameters for SL-16 DEB.

Object identification

Identified? True

Debris? True

Object name: SL-16 DEB

International designator: 1992-093EK

Object number (NORAD): 22442

Object ID (CCSDS): 22442

Country: COMMONWEALTH OF INDEPENDENT STATES (CIS)

Current information (Y/N): Y

RCS size: SMALL

Orbital parameters

Period: 99.745 minutes

Inclination: 71.0995 deg

SMA: 7124.52 km

Apoapsis: 818.036 km

Periapsis: 674.735 km

RAAN: 169.2407 deg

Eccentricy: 0.0100569

Argument of periapsis: 246.6325 deg

Mean anomaly: 112.421 deg

Mean motion: 14.43674594 rev/day

Mean motion (dot): 0.00004645 rev/day2

B* drag term: 0.0013001 1/REarth

Two-line elements (TLE)

Creation date: July 6, 2025, 6:05 p.m.

Reference frame: TEME

Reference center: EARTH

Epoch: July 6, 2025, 2:32 a.m. UTC

TLE line 0: 0 SL-16 DEB

TLE line 1: 1 22442U 92093EK 25187.10590571 .00004645 00000-0 13001-2 0 9994

TLE line 2: 2 22442 71.0995 169.2407 0100569 246.6325 112.4210 14.43674594669183

Live tracking on map

Real-time ground track for satellite SL-16 DEB.

In-orbit conjunctions

A list of the most updated potential collisions computed for object SL-16 DEB.

Target Orbit TCA Probability of collision Miss distance Type
FENGYUN 1C DEB * SSO 2024-11-15 02:39:48 0.0001598799 169.0 (m) DEBRIS
FENGYUN 1C DEB * SSO 2024-11-15 01:50:12 0.0001514968 835.0 (m) DEBRIS

Associated space launch

Second generation ELING satellite

SL-16 DEB was lifted into orbit during the mission ‘Zenit-2 | Tselina-2 12’, on board a Zenit-2 space rocket.

The launch took place on Dec. 25, 1992, 5:56 a.m. from 45/1.

For more information about the launch, click the button.

Launch to space Zenit-2 | Tselina-2 12
Zenit-2 | Tselina-2 12

Agency: N/A

Status: Launch Successful

Launch date: Dec. 25, 1992, 5:56 a.m. UTC

Rocket: Zenit-2

Launch pad: 45/1

Location: Baikonur Cosmodrome, Republic of Kazakhstan

...

Latest news about this satellite

There are no fresh news available about this satellite. Check back as we update our databases every day.


Newsletter sign-up

Weekly statistics, charts and insights to help you stay on top of the space industry.